Simultaneous Nadir Overpasses (SNOs) Predictions

Prediction of SNOs near US between AQUA and NPP Satellite Orbit:

Table of predicted SNOs near US for the next 10.0 days since TLE Epoch: 3/27/2021
Index Date (AQUA) Time (AQUA) AQUA Lat,Lon Date (NPP) Time (NPP) NPP Lat,Lon Distance(km) Time Diff (sec)
1 03/27/2021 06:30:38 45.21, -65.46 03/27/2021 06:30:17 45.54, -67.46 160.36 21
2 03/27/2021 08:08:12 49.91, -88.35 03/27/2021 08:10:23 50.38, -90.81 182.67 131
3 03/27/2021 09:47:05 49.92,-113.07 03/27/2021 09:51:50 50.54,-116.11 227.06 285
4 03/29/2021 19:06:21 50.00, -92.54 03/29/2021 19:00:38 49.66, -94.37 136.60 343
5 03/29/2021 20:45:14 49.99,-117.26 03/29/2021 20:42:06 49.55,-119.70 181.86 188
6 04/04/2021 07:18:44 49.92, -75.99 04/04/2021 07:19:35 50.36, -78.12 159.21 51
7 04/04/2021 08:57:37 49.92,-100.71 04/04/2021 09:01:03 50.47,-103.44 203.65 206
